Corvallis, OR

1:03 AM PDT on September 21, 2017 (GMT -0700)
Corvallis Municipal

Weather History for KCVO - August, 2014

Change the Weather History Date:

Tuesday, August 19, 2014

  Actual Average Record
Temperature  
Mean Temperature 72 °F -  
Max Temperature 84 °F 81 °F 102 °F (2016)
Min Temperature 59 °F 53 °F 46 °F (1996)
Cooling Degree Days 6    
Growing Degree Days 22 (Base 50)    
Moisture  
Dew Point 56 °F    
Average Humidity 64    
Maximum Humidity 82    
Minimum Humidity 42    
Precipitation  
Precipitation 0.00 in - - ()
Sea Level Pressure  
Sea Level Pressure 29.87 in    
Wind  
Wind Speed 13 mph (NW)    
Max Wind Speed 20 mph    
Max Gust Speed 25 mph    
Visibility 10 miles    
Events      
Averages and records for this station are not official NWS values.
T = Trace of Precipitation, MM = Missing Value Source: NWS Daily Summary

Daily Weather History Graph

Daily Weather History Graph

Search for Another Location

Airport or City:

Trip Planner

Search our weather history database for the weather conditions in past years. The results will help you decide how hot, cold, wet, or windy it might be!

Date:

Astronomy

Aug. 19, 2014 Rise Set
Actual Time 6:20 AM PDT 8:11 PM PDT
Civil Twilight 5:49 AM PDT 8:42 PM PDT
Nautical Twilight 5:11 AM PDT 9:20 PM PDT
Astronomical Twilight 4:29 AM PDT 10:02 PM PDT
Moon 1:13 AM PDT (8/19) 4:17 PM PDT (8/19)
Length of Visible Light 14h 53m
Length of Day
13h 51m
Waning Crescent, 28% of the Moon is Illuminated
Aug 19
Waning Crescent
Aug 25
New
Sep 2
First Quarter
Sep 8
Full
Sep 15
Last Quarter

Hourly Weather History & Observations

Time (PDT) Temp. Heat Index Dew Point Humidity Pressure Visibility Wind Dir Wind Speed Gust Speed Precip Events Conditions
12:15 AM 66.2 °F - 57.2 °F 73% 29.83 in 10.0 mi WNW 16.1 mph - N/A   Clear
12:35 AM 66.2 °F - 55.4 °F 68% 29.84 in 10.0 mi WNW 13.8 mph - N/A   Clear
12:55 AM 66.2 °F - 55.4 °F 68% 29.83 in 10.0 mi NW 10.4 mph - N/A   Clear
1:15 AM 66.2 °F - 55.4 °F 68% 29.83 in 10.0 mi WNW 15.0 mph - N/A   Clear
1:35 AM 64.4 °F - 55.4 °F 73% 29.84 in 10.0 mi WNW 11.5 mph - N/A   Clear
1:55 AM 64.4 °F - 55.4 °F 73% 29.84 in 10.0 mi WNW 12.7 mph - N/A   Clear
2:15 AM 64.4 °F - 55.4 °F 73% 29.83 in 10.0 mi WNW 10.4 mph - N/A   Clear
2:35 AM 64.4 °F - 55.4 °F 73% 29.84 in 10.0 mi WNW 11.5 mph - N/A   Clear
2:55 AM 62.6 °F - 55.4 °F 77% 29.85 in 10.0 mi WNW 11.5 mph - N/A   Clear
3:15 AM 62.6 °F - 55.4 °F 77% 29.85 in 10.0 mi WNW 9.2 mph - N/A   Clear
3:35 AM 62.6 °F - 55.4 °F 77% 29.85 in 10.0 mi WNW 6.9 mph - N/A   Clear
3:55 AM 62.6 °F - 55.4 °F 77% 29.86 in 10.0 mi NW 13.8 mph - N/A   Clear
4:15 AM 62.6 °F - 55.4 °F 77% 29.86 in 10.0 mi WNW 13.8 mph - N/A   Clear
4:35 AM 60.8 °F - 55.4 °F 82% 29.86 in 10.0 mi NW 8.1 mph - N/A   Clear
4:55 AM 60.8 °F - 53.6 °F 77% 29.86 in 10.0 mi WNW 9.2 mph - N/A   Clear
5:15 AM 60.8 °F - 53.6 °F 77% 29.86 in 10.0 mi WNW 11.5 mph - N/A   Clear
5:35 AM 60.8 °F - 53.6 °F 77% 29.86 in 10.0 mi WNW 12.7 mph - N/A   Clear
5:55 AM 60.8 °F - 53.6 °F 77% 29.86 in 10.0 mi WNW 15.0 mph - N/A   Clear
6:15 AM 60.8 °F - 53.6 °F 77% 29.87 in 10.0 mi WNW 13.8 mph - N/A   Clear
6:35 AM 59.0 °F - 53.6 °F 82% 29.87 in 10.0 mi WNW 10.4 mph - N/A   Clear
6:55 AM 59.0 °F - 53.6 °F 82% 29.87 in 10.0 mi WNW 12.7 mph - N/A   Clear
7:15 AM 60.8 °F - 53.6 °F 77% 29.87 in 10.0 mi WNW 12.7 mph - N/A   Clear
7:35 AM 60.8 °F - 53.6 °F 77% 29.88 in 10.0 mi NW 10.4 mph - N/A   Clear
7:55 AM 60.8 °F - 53.6 °F 77% 29.88 in 10.0 mi WNW 12.7 mph - N/A   Clear
8:15 AM 62.6 °F - 53.6 °F 72% 29.88 in 10.0 mi WNW 12.7 mph - N/A   Clear
8:35 AM 64.4 °F - 55.4 °F 73% 29.89 in 10.0 mi WNW 10.4 mph - N/A   Clear
8:55 AM 66.2 °F - 55.4 °F 68% 29.89 in 10.0 mi NW 11.5 mph - N/A   Clear
9:15 AM 66.2 °F - 53.6 °F 64% 29.90 in 10.0 mi NW 9.2 mph - N/A   Clear
9:35 AM 69.8 °F - 53.6 °F 56% 29.90 in - NW 12.7 mph - N/A   Clear
9:55 AM 69.8 °F - 53.6 °F 56% 29.90 in - WNW 12.7 mph - N/A   Clear
10:15 AM 69.8 °F - 55.4 °F 60% 29.90 in - NW 12.7 mph - N/A   Clear
10:35 AM 71.6 °F - 55.4 °F 57% 29.90 in - NW 12.7 mph - N/A   Clear
10:55 AM 71.6 °F - 55.4 °F 57% 29.90 in - NW 11.5 mph - N/A   Clear
11:15 AM 73.4 °F - 57.2 °F 57% 29.90 in - NW 15.0 mph - N/A   Clear
11:35 AM 73.4 °F - 57.2 °F 57% 29.90 in - NW 15.0 mph 18.4 mph N/A   Clear
11:55 AM 75.2 °F - 57.2 °F 53% 29.89 in - NW 15.0 mph - N/A   Clear
12:15 PM 75.2 °F - 57.2 °F 53% 29.88 in 10.0 mi NW 11.5 mph - N/A   Clear
12:35 PM 78.8 °F - 57.2 °F 47% 29.88 in 10.0 mi NW 12.7 mph - N/A   Clear
12:55 PM 78.8 °F - 57.2 °F 47% 29.88 in 10.0 mi NW 11.5 mph - N/A   Clear
1:15 PM 80.6 °F 80.8 °F 57.2 °F 45% 29.87 in 10.0 mi NNW 10.4 mph - N/A   Clear
1:35 PM 80.6 °F 80.8 °F 57.2 °F 45% 29.87 in 10.0 mi NNW 10.4 mph - N/A   Clear
1:55 PM 82.4 °F 82.0 °F 57.2 °F 42% 29.86 in 10.0 mi NW 10.4 mph 16.1 mph N/A   Clear
2:15 PM 82.4 °F 82.5 °F 59.0 °F 45% 29.86 in 10.0 mi NW 10.4 mph - N/A   Clear
2:35 PM 84.2 °F 84.4 °F 60.8 °F 45% 29.85 in 10.0 mi NW 11.5 mph - N/A   Clear
2:55 PM 82.4 °F 82.9 °F 60.8 °F 48% 29.85 in 10.0 mi NW 12.7 mph 18.4 mph N/A   Clear
3:35 PM 84.2 °F 83.8 °F 59.0 °F 42% 29.84 in 10.0 mi NW 13.8 mph 18.4 mph N/A   Clear
3:55 PM 84.2 °F 83.8 °F 59.0 °F 42% 29.83 in 10.0 mi NW 15.0 mph - N/A   Clear
4:15 PM 84.2 °F 83.8 °F 59.0 °F 42% 29.83 in 10.0 mi NW 16.1 mph - N/A   Clear
4:35 PM 84.2 °F 84.4 °F 60.8 °F 45% 29.83 in 10.0 mi NW 17.3 mph - N/A   Clear
4:55 PM 82.4 °F 82.5 °F 59.0 °F 45% 29.83 in 10.0 mi NW 16.1 mph - N/A   Clear
5:15 PM 82.4 °F 82.5 °F 59.0 °F 45% 29.83 in 10.0 mi NW 16.1 mph 20.7 mph N/A   Clear
5:35 PM 82.4 °F 82.5 °F 59.0 °F 45% 29.83 in 10.0 mi NW 18.4 mph 23.0 mph N/A   Clear
5:55 PM 80.6 °F 81.1 °F 59.0 °F 48% 29.83 in 10.0 mi WNW 19.6 mph 24.2 mph N/A   Clear
6:15 PM 80.6 °F 81.1 °F 59.0 °F 48% 29.83 in 10.0 mi WNW 16.1 mph - N/A   Clear
6:35 PM 78.8 °F - 57.2 °F 47% 29.83 in 10.0 mi WNW 19.6 mph 25.3 mph N/A   Clear
6:55 PM 77.0 °F - 57.2 °F 50% 29.83 in 10.0 mi WNW 17.3 mph 25.3 mph N/A   Clear
7:55 PM 71.6 °F - 57.2 °F 60% 29.85 in 10.0 mi WNW 16.1 mph - N/A   Clear
8:15 PM 69.8 °F - 57.2 °F 64% 29.86 in 10.0 mi WNW 17.3 mph - N/A   Clear
8:35 PM 69.8 °F - 57.2 °F 64% 29.87 in 10.0 mi WNW 13.8 mph - N/A   Clear
8:55 PM 68.0 °F - 57.2 °F 68% 29.87 in 10.0 mi WNW 10.4 mph - N/A   Clear
9:15 PM 66.2 °F - 57.2 °F 73% 29.89 in 10.0 mi NNW 9.2 mph - N/A   Clear
9:35 PM 66.2 °F - 57.2 °F 73% 29.89 in 10.0 mi NNW 10.4 mph - N/A   Partly Cloudy
9:55 PM 66.2 °F - 57.2 °F 73% 29.89 in 10.0 mi NW 9.2 mph - N/A   Partly Cloudy
10:15 PM 66.2 °F - 57.2 °F 73% 29.89 in 10.0 mi NW 10.4 mph - N/A   Mostly Cloudy
10:35 PM 64.4 °F - 57.2 °F 77% 29.90 in 10.0 mi NW 10.4 mph - N/A   Partly Cloudy
10:55 PM 64.4 °F - 57.2 °F 77% 29.90 in 10.0 mi WNW 10.4 mph - N/A   Clear
11:15 PM 64.4 °F - 57.2 °F 77% 29.90 in 10.0 mi NW 12.7 mph - N/A   Clear
11:35 PM 62.6 °F - 57.2 °F 82% 29.91 in 10.0 mi NW 16.1 mph - N/A   Clear
11:55 PM 62.6 °F - 57.2 °F 82% 29.91 in 10.0 mi WNW 13.8 mph - N/A   Partly Cloudy